This is the latest recevied weather packets stored in our database for station/object N3MFL. If no packets are shown the sender has not sent any weather packets the latest 10 day(s).
| Time | Temp. | Humidity | Pressure | Rain* | Wind** | Luminosity | Snow |
|---|---|---|---|---|---|---|---|
| 1778172853 | 16.67° C | 42% | 1008 hPa | 0 mm | - | 414 W/m² | - |
| 1778172548 | 16.67° C | 40% | 1007.9 hPa | 0 mm | - | 156 W/m² | - |
| 1778172246 | 16.67° C | 41% | 1008.3 hPa | 0 mm | - | 715 W/m² | - |
| 1778171944 | 16.67° C | 43% | 1008.1 hPa | 0 mm | - | 121 W/m² | - |
| 1778171641 | 16.67° C | 40% | 1008 hPa | 0 mm | - | 424 W/m² | - |
| 1778171337 | 16.67° C | 40% | 1008 hPa | 0 mm | - | 527 W/m² | - |
| 1778171032 | 16.67° C | 43% | 1008.3 hPa | 0 mm | - | 248 W/m² | - |
| 1778170730 | 17.22° C | 51% | 1008.3 hPa | 0 mm | - | 743 W/m² | - |
| 1778170426 | 17.22° C | 49% | 1008.3 hPa | 0 mm | - | 747 W/m² | - |
| 1778170123 | 16.67° C | 49% | 1008.2 hPa | 0 mm | - | 740 W/m² | - |
| 1778169818 | 16.11° C | 49% | 1008.4 hPa | 0 mm | - | 740 W/m² | - |
| 1778169515 | 16.67° C | 54% | 1008.4 hPa | 0 mm | - | 739 W/m² | - |
| 1778169211 | 16.67° C | 54% | 1008.7 hPa | 0 mm | - | 739 W/m² | - |
| 1778168908 | 16.67° C | 53% | 1008.6 hPa | 0 mm | - | 768 W/m² | - |
| 1778168605 | 16.11° C | 53% | 1008.6 hPa | 0 mm | - | 735 W/m² | - |
| 1778168302 | 16.11° C | 59% | 1008.6 hPa | 0 mm | - | 808 W/m² | - |
| 1778167998 | 16.11° C | 58% | 1008.6 hPa | 0 mm | - | 816 W/m² | - |
| 1778167695 | 16.11° C | 61% | 1008.7 hPa | 0 mm | - | 774 W/m² | - |
| 1778167391 | 16.11° C | 59% | 1008.9 hPa | 0 mm | - | 743 W/m² | - |
| 1778167087 | 15.56° C | 58% | 1008.8 hPa | 0 mm | - | 771 W/m² | - |
| 1778166783 | 16.11° C | 59% | 1008.7 hPa | 0 mm | - | 861 W/m² | - |
| 1778166480 | 16.11° C | 64% | 1008.8 hPa | 0 mm | - | 747 W/m² | - |
| 1778166177 | 15° C | 66% | 1008.7 hPa | 0 mm | - | 727 W/m² | - |
| 1778165873 | 14.44° C | 65% | 1009 hPa | 0 mm | - | 765 W/m² | - |
| 1778165570 | 14.44° C | 66% | 1009 hPa | 0 mm | - | 138 W/m² | - |
* Rain latest hour (hover to see other rain measurements)
** Current wind speed in m/s (hover to see current wind gust speed)